Inquirer Daily News

Weather

Get conditions and forecasts for any City, State, ZIP code or Country:  
Trenton, NJ
on Saturday, January 19, 2013

Saturday
Previous Day Next Day
Daily Summary
 ActualAverageRecord
Temperature
Mean Temperature °F 31°F  
Max Temperature 50°F 39°F 65°F (1951)
Min Temperature 26°F 23°F -8°F (1875)
Degree Days
Heating Degree Days 27 34  
Month to date heating degree days 520 645  
Since 1 July heating degree days 2278 2540  
Cooling Degree Days 0 0  
Month to date cooling degree days 0 0  
Year to date cooling degree days 0 0  
Moisture
Dew Point 24°F   
Average Humidity 57    
Maximum Humidity 75    
Minimum Humidity 39    
Precipitation
Precipitation 0.00 in 0.09 in 2.00 in (1996)
Month to date precipitation 1.63 1.98  
Year to date precipitation 1.63 1.98  
Wind
Wind Speed 11 mph   
Max Wind Speed 21 mph   
Max Gust Speed 28 mph   
Visibility 10 miles   
Events     

Key: T is trace of precipitation, MM is missing value
Source: NWS Daily Summary
Time(EST)TemperatureDew PointHumidity Pressure Visibility Wind DirectionWind SpeedGust SpeedPrecipitationEvents Conditions
12:53 AM 26.1°F 12.9°F 58% 30.39 in 10.0 miles SSW 6.9 mph - N/A   Clear
1:53 AM 26.1°F 14.0°F 60% 30.38 in 10.0 miles SSW 6.9 mph - N/A   Clear
2:53 AM 27.0°F 15.1°F 61% 30.36 in 10.0 miles SSW 6.9 mph - N/A   Clear
3:53 AM 27.0°F 17.1°F 66% 30.34 in 10.0 miles SSW 9.2 mph - N/A   Clear
4:53 AM 26.1°F 18.0°F 71% 30.32 in 10.0 miles SSW 4.6 mph - N/A   Clear
5:53 AM 27.0°F 19.0°F 72% 30.32 in 10.0 miles SSW 5.8 mph - N/A   Scattered Clouds
6:53 AM 28.9°F 21.0°F 72% 30.30 in 10.0 miles SSW 8.1 mph - N/A   Clear
7:53 AM 32.0°F 24.1°F 73% 30.30 in 10.0 miles WSW 9.2 mph - N/A   Clear
8:53 AM 35.1°F 25.0°F 67% 30.30 in 10.0 miles WSW 12.7 mph - N/A   Clear
9:53 AM 37.9°F 26.1°F 62% 30.30 in 10.0 miles WSW 17.3 mph 23.0 mph N/A   Clear
10:53 AM 41.0°F 27.0°F 57% 30.26 in 10.0 miles SW 15.0 mph 23.0 mph N/A   Clear
11:53 AM 44.1°F 28.0°F 53% 30.20 in 10.0 miles WSW 13.8 mph - N/A   Clear
12:53 PM 46.9°F 27.0°F 46% 30.16 in 10.0 miles WSW 10.4 mph 21.9 mph N/A   Clear
1:53 PM 48.9°F 27.0°F 43% 30.12 in 10.0 miles WSW 15.0 mph - N/A   Clear
2:53 PM 50.0°F 27.0°F 41% 30.10 in 10.0 miles WSW 11.5 mph - N/A   Clear
3:53 PM 50.0°F 27.0°F 41% 30.08 in 10.0 miles WSW 16.1 mph 20.7 mph N/A   Clear
4:53 PM 46.9°F 27.0°F 46% 30.06 in 10.0 miles SW 11.5 mph - N/A   Clear
5:53 PM 45.0°F 27.0°F 49% 30.05 in 10.0 miles SW 6.9 mph - N/A   Clear
6:53 PM 44.1°F 27.0°F 51% 30.04 in 10.0 miles SSW 11.5 mph - N/A   Clear
7:53 PM 44.1°F 27.0°F 51% 30.03 in 10.0 miles SSW 12.7 mph - N/A   Clear
8:53 PM 42.1°F 27.0°F 55% 30.01 in 10.0 miles SW 11.5 mph - N/A   Clear
9:53 PM 42.1°F 28.0°F 58% 29.99 in 10.0 miles SW 11.5 mph - N/A   Clear
10:53 PM 41.0°F 28.0°F 60% 29.96 in 10.0 miles SW 11.5 mph - N/A   Clear
11:53 PM 39.9°F 28.0°F 63% 29.93 in 10.0 miles WSW 6.9 mph - N/A   Clear
Astronomy
Sunrise:07:17 AM (EST) Moon Rise:11:27 AM (EST)1/19
Sunset:05:02 PM (EST) Moon Set:12:49 AM (EST)1/19
Moon Phase
Jan. 19 Jan. 26 Feb. 03 Feb. 10 Feb. 17

Copyright © 2014 The Weather Underground, Inc.